When you browse on this site, cookies collect data to enhance your experience and personalize the content and advertising you see.
Visit our Privacy Policy to learn more. By continuing to use the site, you agree to this use of cookies and data.

Météo par heure à Ali Bayramli

Ce jour, 7 Juillet, Mardi

Heure Température Précipitation Vent Pression Humidité
00:00 +27°C° 0 mm 1 m/s 752 mmHg 47%
01:00 +26°C° 0 mm 1 m/s 752 mmHg 48%
02:00 +25°C° 0 mm 1 m/s 752 mmHg 49%
03:00 +23°C° 0 mm 0 m/s 752 mmHg 50%
04:00 +25°C° 0 mm 0 m/s 752 mmHg 44%
05:00 +27°C° 0 mm 0 m/s 752 mmHg 38%
06:00 +28°C° 0 mm 0 m/s 753 mmHg 32%
07:00 +32°C° 0 mm 1 m/s 753 mmHg 27%
08:00 +34°C° 0 mm 1 m/s 753 mmHg 23%
09:00 +37°C° 0 mm 2 m/s 753 mmHg 18%
10:00 +39°C° 0 mm 3 m/s 752 mmHg 17%
11:00 +41°C° 0 mm 4 m/s 752 mmHg 15%
12:00 +42°C° 0 mm 4 m/s 752 mmHg 13%
13:00 +42°C° 0 mm 5 m/s 752 mmHg 14%
14:00 +42°C° 0 mm 6 m/s 752 mmHg 14%
15:00 +43°C° 0 mm 7 m/s 752 mmHg 14%
16:00 +40°C° 0 mm 7 m/s 751 mmHg 16%
17:00 +39°C° 0 mm 6 m/s 751 mmHg 19%
18:00 +36°C° 0 mm 5 m/s 751 mmHg 21%
19:00 +34°C° 0 mm 4 m/s 751 mmHg 26%
20:00 +31°C° 0 mm 3 m/s 752 mmHg 31%
21:00 +29°C° 0 mm 2 m/s 752 mmHg 36%
22:00 +28°C° 0 mm 2 m/s 752 mmHg 38%
23:00 +28°C° 0 mm 2 m/s 752 mmHg 40%

Demain, 8 Juillet, Mercredi

Heure Température Précipitation Vent Pression Humidité
00:00 +27°C° 0 mm 2 m/s 752 mmHg 41%
01:00 +27°C° 0 mm 2 m/s 752 mmHg 42%
02:00 +26°C° 0 mm 2 m/s 752 mmHg 43%
03:00 +26°C° 0 mm 2 m/s 752 mmHg 43%
04:00 +27°C° 0 mm 1 m/s 752 mmHg 41%
05:00 +28°C° 0 mm 1 m/s 752 mmHg 38%
06:00 +30°C° 0 mm 1 m/s 752 mmHg 35%
07:00 +31°C° 0 mm 1 m/s 752 mmHg 30%
08:00 +33°C° 0 mm 1 m/s 752 mmHg 26%
09:00 +35°C° 0 mm 1 m/s 752 mmHg 21%
10:00 +38°C° 0 mm 2 m/s 752 mmHg 19%
11:00 +39°C° 0 mm 3 m/s 751 mmHg 17%
12:00 +42°C° 0 mm 4 m/s 751 mmHg 15%
13:00 +42°C° 0 mm 5 m/s 751 mmHg 15%
14:00 +42°C° 0 mm 6 m/s 751 mmHg 14%
15:00 +42°C° 0 mm 6 m/s 750 mmHg 14%
16:00 +41°C° 0 mm 6 m/s 750 mmHg 16%
17:00 +39°C° 0 mm 6 m/s 750 mmHg 18%
18:00 +36°C° 0 mm 6 m/s 750 mmHg 21%
19:00 +34°C° 0 mm 5 m/s 750 mmHg 26%
20:00 +32°C° 0 mm 4 m/s 751 mmHg 32%
21:00 +29°C° 0 mm 2 m/s 751 mmHg 38%
22:00 +29°C° 0 mm 2 m/s 751 mmHg 38%
23:00 +28°C° 0 mm 2 m/s 751 mmHg 38%

Après-demain, 9 Juillet, Jeudi

Heure Température Précipitation Vent Pression Humidité
00:00 +28°C° 0 mm 1 m/s 751 mmHg 39%
01:00 +28°C° 0 mm 1 m/s 751 mmHg 39%
02:00 +27°C° 0 mm 2 m/s 751 mmHg 40%
03:00 +27°C° 0 mm 2 m/s 752 mmHg 41%
04:00 +28°C° 0 mm 2 m/s 752 mmHg 40%
05:00 +29°C° 0 mm 1 m/s 752 mmHg 39%
06:00 +29°C° 0 mm 1 m/s 753 mmHg 38%
07:00 +31°C° 0 mm 1 m/s 753 mmHg 34%
08:00 +32°C° 0 mm 1 m/s 753 mmHg 31%
09:00 +34°C° 0 mm 1 m/s 754 mmHg 27%
10:00 +36°C° 0 mm 2 m/s 754 mmHg 25%
11:00 +38°C° 0 mm 2 m/s 754 mmHg 22%
12:00 +39°C° 0 mm 3 m/s 754 mmHg 19%
13:00 +40°C° 0 mm 4 m/s 753 mmHg 22%
14:00 +40°C° 0 mm 6 m/s 753 mmHg 24%
15:00 +40°C° 0 mm 8 m/s 753 mmHg 26%
16:00 +39°C° 0 mm 9 m/s 753 mmHg 29%
17:00 +38°C° 0 mm 10 m/s 753 mmHg 31%
18:00 +37°C° 0 mm 11 m/s 753 mmHg 34%
19:00 +36°C° 0 mm 10 m/s 754 mmHg 36%
20:00 +34°C° 0 mm 8 m/s 754 mmHg 39%
21:00 +33°C° 0 mm 7 m/s 755 mmHg 41%
22:00 +32°C° 0 mm 6 m/s 755 mmHg 45%
23:00 +30°C° 0 mm 5 m/s 755 mmHg 48%

10 Juillet, Vendredi

Heure Température Précipitation Vent Pression Humidité
00:00 +29°C° 0 mm 5 m/s 755 mmHg 52%
01:00 +28°C° 0 mm 4 m/s 755 mmHg 56%
02:00 +28°C° 0 mm 3 m/s 756 mmHg 59%
03:00 +27°C° 0 mm 2 m/s 756 mmHg 62%
04:00 +28°C° 0 mm 2 m/s 756 mmHg 59%
05:00 +28°C° 0 mm 2 m/s 756 mmHg 56%
06:00 +29°C° 0 mm 2 m/s 757 mmHg 53%
07:00 +31°C° 0 mm 2 m/s 757 mmHg 48%
08:00 +32°C° 0 mm 2 m/s 757 mmHg 43%
09:00 +34°C° 0 mm 1 m/s 757 mmHg 37%
10:00 +35°C° 0 mm 1 m/s 757 mmHg 35%
11:00 +37°C° 0 mm 1 m/s 757 mmHg 32%
12:00 +39°C° 0 mm 1 m/s 757 mmHg 29%
13:00 +39°C° 0 mm 3 m/s 757 mmHg 29%
14:00 +40°C° 0 mm 5 m/s 756 mmHg 29%
15:00 +40°C° 0 mm 6 m/s 756 mmHg 29%
16:00 +39°C° 0 mm 7 m/s 756 mmHg 30%
17:00 +38°C° 0 mm 8 m/s 756 mmHg 32%
18:00 +37°C° 0 mm 10 m/s 756 mmHg 34%
19:00 +35°C° 0 mm 9 m/s 756 mmHg 38%
20:00 +33°C° 0 mm 8 m/s 757 mmHg 42%
21:00 +32°C° 0 mm 7 m/s 757 mmHg 47%
22:00 +30°C° 0 mm 6 m/s 757 mmHg 49%
23:00 +30°C° 0 mm 5 m/s 757 mmHg 51%

11 Juillet, Samedi

Heure Température Précipitation Vent Pression Humidité
00:00 +30°C° 0 mm 5 m/s 757 mmHg 52%
01:00 +29°C° 0 mm 4 m/s 757 mmHg 54%
02:00 +29°C° 0 mm 4 m/s 756 mmHg 56%
03:00 +28°C° 0 mm 4 m/s 756 mmHg 57%
04:00 +28°C° 0 mm 3 m/s 756 mmHg 57%
05:00 +28°C° 0 mm 3 m/s 756 mmHg 56%
06:00 +28°C° 0 mm 2 m/s 756 mmHg 56%
07:00 +30°C° 0.1 mm 2 m/s 756 mmHg 51%
08:00 +31°C° 0.1 mm 2 m/s 756 mmHg 46%
09:00 +34°C° 0.1 mm 2 m/s 756 mmHg 41%
10:00 +35°C° 0 mm 2 m/s 756 mmHg 37%
11:00 +36°C° 0 mm 2 m/s 756 mmHg 34%
12:00 +38°C° 0 mm 2 m/s 756 mmHg 30%
13:00 +38°C° 0 mm 3 m/s 755 mmHg 29%
14:00 +40°C° 0 mm 4 m/s 755 mmHg 27%
15:00 +40°C° 0 mm 5 m/s 755 mmHg 26%
16:00 +39°C° 0 mm 6 m/s 755 mmHg 26%
17:00 +39°C° 0 mm 7 m/s 755 mmHg 27%
18:00 +38°C° 0 mm 7 m/s 754 mmHg 27%
19:00 +35°C° 0 mm 7 m/s 755 mmHg 31%
20:00 +34°C° 0 mm 6 m/s 755 mmHg 34%
21:00 +32°C° 0 mm 5 m/s 755 mmHg 38%
22:00 +30°C° 0 mm 5 m/s 755 mmHg 41%
23:00 +30°C° 0 mm 4 m/s 755 mmHg 45%

12 Juillet, Dimanche

Heure Température Précipitation Vent Pression Humidité
00:00 +29°C° 0 mm 4 m/s 755 mmHg 48%
01:00 +28°C° 0 mm 4 m/s 755 mmHg 51%
02:00 +27°C° 0 mm 3 m/s 754 mmHg 54%
03:00 +27°C° 0 mm 3 m/s 754 mmHg 57%
04:00 +27°C° 0 mm 3 m/s 754 mmHg 56%
05:00 +28°C° 0 mm 3 m/s 754 mmHg 55%
06:00 +28°C° 0 mm 3 m/s 754 mmHg 53%
07:00 +30°C° 0 mm 3 m/s 754 mmHg 48%
08:00 +31°C° 0 mm 3 m/s 754 mmHg 42%
09:00 +34°C° 0 mm 2 m/s 754 mmHg 36%
10:00 +36°C° 0 mm 3 m/s 754 mmHg 32%
11:00 +37°C° 0 mm 3 m/s 754 mmHg 29%
12:00 +40°C° 0 mm 4 m/s 754 mmHg 25%
13:00 +40°C° 0 mm 5 m/s 753 mmHg 25%
14:00 +40°C° 0 mm 6 m/s 753 mmHg 25%
15:00 +40°C° 0 mm 8 m/s 752 mmHg 24%
16:00 +39°C° 0 mm 8 m/s 752 mmHg 26%
17:00 +38°C° 0 mm 8 m/s 752 mmHg 29%
18:00 +37°C° 0 mm 8 m/s 752 mmHg 31%
19:00 +34°C° 0 mm 7 m/s 752 mmHg 36%
20:00 +33°C° 0 mm 6 m/s 752 mmHg 41%
21:00 +32°C° 0 mm 6 m/s 753 mmHg 46%
22:00 +30°C° 0 mm 5 m/s 753 mmHg 51%
23:00 +29°C° 0 mm 4 m/s 752 mmHg 57%
Voir plus